GW0409 Weather Reports


Display with metric or nautical units.
time (UTC)temp
F
wind
direction
speed
MPH
gust
MPH
rain 1hr
in
rain 24hr
in
rain mn
in
humidity
%
barometer
mb
20260831222519 59 215 0.0 2.0 0.00 0.07 0.06 90 1011.0
20260831221520 59 202 1.0 2.0 0.00 0.07 0.06 91 1011.1
20260831220518 58 183 1.0 3.0 0.00 0.07 0.06 91 1011.2
20260831215520 58 221 0.0 2.0 0.00 0.07 0.06 91 1011.3
20260831214540 57 273 1.0 2.0 0.00 0.07 0.06 93 1011.3
20260831213520 57 218 2.0 3.0 0.00 0.07 0.06 94 1011.4
20260831212519 57 239 2.0 3.0 0.00 0.07 0.06 93 1011.4
20260831211516 57 243 1.0 3.0 0.00 0.07 0.06 94 1011.5
20260831210518 57 276 1.0 3.0 0.00 0.07 0.06 95 1011.6
20260831205521 57 260 1.0 3.0 0.00 0.07 0.06 95 1011.6
20260831204540 57 261 1.0 3.0 0.00 0.07 0.06 93 1011.6
20260831203520 57 276 1.0 3.0 0.00 0.07 0.06 93 1011.7
20260831202517 57 251 2.0 4.0 0.00 0.07 0.06 92 1011.7
20260831201539 57 261 1.0 4.0 0.00 0.07 0.06 94 1011.7
20260831200518 57 249 1.0 3.0 0.00 0.07 0.06 93 1011.8
20260831195521 57 263 1.0 4.0 0.00 0.07 0.06 93 1011.8
20260831194518 57 255 1.0 3.0 0.00 0.07 0.06 96 1011.8
20260831193518 56 267 1.0 3.0 0.00 0.07 0.06 96 1012.0
20260831192518 56 307 1.0 2.0 0.00 0.07 0.06 96 1011.9
20260831191520 56 266 2.0 3.0 0.00 0.07 0.06 96 1011.9
20260831190518 56 282 1.0 3.0 0.00 0.08 0.06 96 1011.9
20260831185520 55 285 1.0 3.0 0.00 0.08 0.06 96 1011.9
20260831184559 55 243 2.0 4.0 0.00 0.08 0.06 96 1012.1
20260831183520 55 217 3.0 5.0 0.00 0.08 0.06 96 1012.1
20260831182540 55 221 2.0 5.0 0.00 0.08 0.06 96 1012.1
20260831181517 55 228 2.0 5.0 0.00 0.08 0.06 96 1012.1
20260831180523 55 235 2.0 3.0 0.00 0.08 0.06 96 1012.2
20260831175523 56 273 2.0 3.0 0.00 0.08 0.06 96 1012.2
20260831174523 55 242 1.0 3.0 0.00 0.08 0.06 96 1012.3
20260831173523 55 225 2.0 3.0 0.00 0.08 0.06 96 1012.3
20260831172523 55 247 2.0 3.0 0.00 0.08 0.06 96 1012.3
20260831171524 55 251 1.0 2.0 0.00 0.08 0.06 96 1012.4
20260831170525 55 267 1.0 3.0 0.00 0.08 0.06 96 1012.5
20260831165524 54 241 2.0 3.0 0.00 0.08 0.06 96 1012.6
20260831164526 54 210 2.0 2.0 0.00 0.08 0.06 96 1012.6
20260831163524 54 218 1.0 3.0 0.01 0.08 0.06 96 1012.8
20260831162526 54 211 1.0 2.0 0.01 0.08 0.06 96 1012.7
20260831161525 54 214 2.0 2.0 0.01 0.08 0.06 96 1012.8
20260831160546 54 212 2.0 2.0 0.01 0.08 0.06 95 1012.9
20260831155525 53 198 1.0 2.0 0.02 0.07 0.06 95 1012.9
20260831154546 53 0.0 0.0 0.02 0.07 0.06 95 1012.9
20260831153526 53 252 0.0 1.0 0.02 0.07 0.06 95 1012.9
20260831152526 53 211 1.0 2.0 0.02 0.07 0.06 95 1012.9
20260831151525 53 195 0.0 0.0 0.02 0.06 0.05 95 1012.9
20260831150526 53 222 2.0 3.0 0.02 0.06 0.05 95 1013.0
20260831145526 53 218 1.0 2.0 0.02 0.06 0.04 95 1012.9
20260831144526 53 223 1.0 2.0 0.02 0.05 0.04 95 1012.9
20260831143548 53 234 1.0 2.0 0.03 0.05 0.04 95 1012.9
20260831142526 53 210 0.0 1.0 0.03 0.05 0.04 95 1012.8
20260831141527 53 218 1.0 2.0 0.03 0.05 0.03 95 1012.7
20260831140527 53 212 2.0 3.0 0.03 0.05 0.03 95 1012.6
20260831135609 53 237 2.0 4.0 0.02 0.04 0.02 95 1012.5
20260831134527 53 296 1.0 3.0 0.02 0.04 0.02 95 1012.5
20260831133529 53 313 2.0 4.0 0.01 0.03 0.01 95 1012.4
20260831132518 53 331 1.0 4.0 0.00 0.03 0.00 95 1012.3
20260831131521 53 321 1.0 2.0 0.00 0.02 0.00 95 1012.3
20260831130520 53 236 0.0 2.0 0.00 0.02 0.00 95 1012.4
20260831125539 53 262 0.0 3.0 0.00 0.02 0.00 95 1012.5
20260831124520 53 206 0.0 3.0 0.00 0.02 0.00 95 1012.5
20260831123519 53 0.0 0.0 0.00 0.02 0.00 95 1012.5
20260831122519 53 216 0.0 3.0 0.00 0.02 0.00 95 1012.5
20260831121521 53 250 1.0 2.0 0.00 0.02 0.00 95 1012.5
20260831120518 53 209 1.0 2.0 0.00 0.02 0.00 95 1012.5
20260831115517 52 196 2.0 3.0 0.00 0.02 0.00 95 1012.6
20260831114518 52 235 1.0 3.0 0.00 0.02 0.00 95 1012.7
20260831113521 51 222 1.0 2.0 0.00 0.02 0.00 95 1012.7
20260831112518 51 310 0.0 2.0 0.00 0.02 0.00 95 1012.7
20260831111517 52 329 2.0 2.0 0.00 0.02 0.00 95 1012.8
20260831110518 52 344 0.0 2.0 0.00 0.02 0.00 95 1012.8
20260831105540 52 356 1.0 2.0 0.00 0.02 0.00 95 1012.8
20260831104520 52 320 1.0 2.0 0.00 0.02 0.00 95 1012.8
20260831103518 52 261 1.0 2.0 0.00 0.02 0.00 95 1012.7
20260831102518 52 243 1.0 2.0 0.00 0.02 0.00 95 1012.8
20260831101520 52 337 0.0 2.0 0.00 0.02 0.00 95 1012.8
20260831100516 52 223 1.0 2.0 0.00 0.02 0.00 95 1013.0
20260831095516 52 331 1.0 3.0 0.00 0.02 0.00 95 1013.1
20260831094519 53 207 2.0 3.0 0.00 0.02 0.00 95 1013.1
20260831093519 53 217 2.0 3.0 0.00 0.02 0.00 95 1013.1
20260831092540 53 208 1.0 3.0 0.00 0.02 0.00 95 1013.1
20260831091557 53 201 2.0 2.0 0.00 0.02 0.00 95 1013.1
20260831090517 53 204 0.0 2.0 0.00 0.02 0.00 95 1013.2
20260831085517 53 211 1.0 2.0 0.00 0.02 0.00 95 1013.3
20260831084522 53 214 2.0 3.0 0.00 0.02 0.00 95 1013.4
20260831083520 53 219 1.0 2.0 0.00 0.02 0.00 95 1013.4
20260831082517 53 231 0.0 1.0 0.00 0.02 0.00 95 1013.4
20260831081557 53 0.0 0.0 0.00 0.02 0.00 95 1013.4
20260831080518 53 205 0.0 2.0 0.00 0.02 0.00 95 1013.3
20260831075518 53 203 1.0 3.0 0.00 0.02 0.00 95 1013.3
20260831074518 53 201 2.0 3.0 0.00 0.02 0.00 95 1013.3
20260831073540 53 276 1.0 1.0 0.00 0.02 0.00 95 1013.4
20260831072518 54 0.0 0.0 0.00 0.02 0.00 95 1013.5
20260831071520 54 338 0.0 2.0 0.00 0.02 0.00 95 1013.5
20260831070539 54 297 0.0 1.0 0.00 0.02 0.00 95 1013.5
20260831065536 54 209 2.0 3.0 0.00 0.02 0.02 95 1013.6
20260831064519 54 227 2.0 4.0 0.00 0.02 0.02 95 1013.8
20260831063519 54 223 2.0 5.0 0.00 0.02 0.02 95 1013.8
20260831062521 54 215 2.0 4.0 0.00 0.02 0.02 95 1013.8
20260831061517 54 222 2.0 3.0 0.00 0.02 0.02 95 1013.7
20260831060517 54 217 2.0 4.0 0.00 0.02 0.02 95 1013.6
20260831055520 54 213 2.0 4.0 0.00 0.02 0.02 95 1013.6
20260831054539 54 224 1.0 3.0 0.00 0.02 0.02 95 1013.5
20260831053517 55 0.0 0.0 0.00 0.02 0.02 95 1013.5
20260831052517 55 0.0 0.0 0.00 0.02 0.02 95 1013.5
20260831051517 55 0.0 0.0 0.00 0.02 0.02 95 1013.5
20260831050519 56 212 1.0 2.0 0.00 0.02 0.02 94 1013.4
20260831045518 56 210 1.0 3.0 0.00 0.02 0.02 93 1013.5
20260831044538 55 209 3.0 4.0 0.00 0.02 0.02 94 1013.5
20260831043539 55 205 2.0 4.0 0.00 0.02 0.02 95 1013.4
20260831042519 55 205 2.0 4.0 0.00 0.02 0.02 94 1013.5
20260831041518 55 205 2.0 3.0 0.00 0.02 0.02 95 1013.5
20260831040539 56 0.0 0.0 0.00 0.02 0.02 92 1013.5
20260831035519 56 356 0.0 2.0 0.00 0.02 0.02 90 1013.4
20260831034519 57 345 1.0 3.0 0.00 0.02 0.02 89 1013.3
20260831033519 57 325 1.0 3.0 0.00 0.02 0.02 88 1013.1
20260831032518 57 300 1.0 3.0 0.00 0.02 0.02 90 1012.9
20260831031517 58 287 1.0 3.0 0.00 0.02 0.02 90 1012.8
20260831030517 58 288 1.0 2.0 0.00 0.02 0.02 88 1012.7
20260831025522 59 326 1.0 2.0 0.00 0.02 0.02 87 1012.7
20260831024520 59 0.0 0.0 0.00 0.02 0.02 85 1012.6
20260831023519 59 227 1.0 2.0 0.00 0.02 0.02 85 1012.5
20260831022518 60 201 0.0 2.0 0.00 0.02 0.02 82 1012.5
20260831021518 61 216 1.0 2.0 0.00 0.02 0.02 81 1012.3
20260831020518 62 0.0 0.0 0.00 0.02 0.02 77 1012.3
20260831015519 63 0.0 0.0 0.00 0.02 0.02 75 1012.2
20260831014518 65 84 1.0 3.0 0.00 0.02 0.02 70 1012.2
20260831013519 64 50 0.0 0.0 0.00 0.02 0.02 71 1012.2
20260831012518 64 34 1.0 4.0 0.00 0.02 0.02 70 1012.1
20260831011520 65 243 0.0 4.0 0.00 0.02 0.02 68 1012.0
20260831010520 66 180 1.0 2.0 0.01 0.02 0.02 67 1011.9
20260831005519 66 293 0.0 3.0 0.01 0.02 0.02 65 1011.9
20260831004521 64 261 1.0 3.0 0.01 0.02 0.02 67 1011.9
20260831003520 63 215 1.0 3.0 0.01 0.02 0.02 70 1011.8
20260831002601 62 261 1.0 5.0 0.01 0.02 0.02 72 1011.8
20260831001521 63 310 1.0 4.0 0.01 0.02 0.02 70 1011.8
20260831000559 63 219 1.0 4.0 0.00 0.02 0.02 70 1011.9
20260830235540 63 262 1.0 5.0 0.00 0.02 0.02 69 1011.9
20260830234521 63 213 1.0 3.0 0.00 0.02 0.02 69 1012.0
20260830233517 64 273 1.0 6.0 0.00 0.02 0.02 68 1012.0
20260830232518 65 228 2.0 6.0 0.00 0.02 0.02 67 1011.8
20260830231519 65 233 3.0 8.0 0.00 0.02 0.02 67 1011.9
20260830230518 65 242 3.0 8.0 0.00 0.02 0.02 67 1011.9
20260830225518 64 234 3.0 5.0 0.00 0.02 0.02 69 1012.0
20260830224519 63 258 3.0 9.0 0.00 0.02 0.02 69 1012.1
20260830223520 62 212 1.0 5.0 0.00 0.02 0.02 75 1012.2